This is the latest recevied weather packets stored in our database for station/object N9JXN-13. If no packets are shown the sender has not sent any weather packets the latest 10 day(s).
| Time | Temp. | Humidity | Pressure | Rain* | Wind** | Luminosity | Snow |
|---|---|---|---|---|---|---|---|
| 1777743860 | 11.67° C | 41% | 1019.4 hPa | 0 mm | - | 322 W/m² | - |
| 1777742960 | 13.33° C | 44% | 1019.5 hPa | 0 mm | - | 1153 W/m² | - |
| 1777742659 | 12.22° C | 40% | 1019.6 hPa | 0 mm | - | 1150 W/m² | - |
| 1777738760 | 11.67° C | 43% | 1020.1 hPa | 0 mm | - | 814 W/m² | - |
| 1777738459 | 11.67° C | 44% | 1020.2 hPa | 0 mm | - | 914 W/m² | - |
| 1777737860 | 11.67° C | 44% | 1020.2 hPa | 0 mm | - | 902 W/m² | - |
| 1777737259 | 11.11° C | 45% | 1020.3 hPa | 0 mm | - | 854 W/m² | - |
| 1777736960 | 11.11° C | 44% | 1020.4 hPa | 0 mm | - | 853 W/m² | - |
| 1777736060 | 11.11° C | 49% | 1020.4 hPa | 0 mm | - | 819 W/m² | - |
| 1777735760 | 11.11° C | 48% | 1020.4 hPa | 0 mm | - | 805 W/m² | - |
| 1777730961 | 7.78° C | 64% | 1020.5 hPa | 0 mm | - | 149 W/m² | - |
| 1777728860 | 6.11° C | 76% | 1020.4 hPa | 0 mm | - | 58 W/m² | - |
| 1777726159 | 3.89° C | 91% | 1020.3 hPa | 0 mm | - | 54 W/m² | - |
| 1777725860 | 3.89° C | 92% | 1020.2 hPa | 0 mm | - | 47 W/m² | - |
| 1777725559 | 3.89° C | 93% | 1020.2 hPa | 0 mm | - | 35 W/m² | - |
| 1777723759 | 2.22° C | 95% | 1020 hPa | 0 mm | - | 32 W/m² | - |
| 1777721659 | 1.11° C | 94% | 1019.7 hPa | 0 mm | - | 21 W/m² | - |
| 1777720759 | 1.11° C | 94% | 1019.6 hPa | 0 mm | - | 16 W/m² | - |
| 1777719259 | 1.11° C | 93% | 1019.5 hPa | 0 mm | - | 5 W/m² | - |
| 1777718360 | 1.11° C | 93% | 1019.5 hPa | 0 mm | - | 0 W/m² | - |
| 1777715959 | 1.67° C | 92% | 1019.3 hPa | 0 mm | - | 0 W/m² | - |
| 1777714759 | 2.22° C | 92% | 1019.3 hPa | 0 mm | - | 0 W/m² | - |
| 1777709959 | 3.33° C | 89% | 1019.2 hPa | 0 mm | - | 0 W/m² | - |
| 1777709659 | 3.89° C | 89% | 1019.2 hPa | 0 mm | - | 0 W/m² | - |
| 1777704858 | 3.89° C | 85% | 1019.4 hPa | 0 mm | - | 0 W/m² | - |
* Rain latest hour (hover to see other rain measurements)
** Current wind speed in m/s (hover to see current wind gust speed)